(321301) = 2002 CX288 = 2009 FR65

Discovered at Kitt Peak on 2009-03-18 by Spacewatch.

Orbit

Orbit type: Main Belt

Note: WebGL enabled browser required.

epoch2023-09-13.0
epoch JD2460200.5
perihelion date2022-04-12.15270
perihelion JD2459681.65270
argument of perihelion (°)78.21178
ascending node (°)94.80358
inclination (°)2.54114
eccentricity0.0895705
perihelion distance (AU)2.0249666
Tisserand w.r.t. Jupiter3.6
ΔV w.r.t. Earth (km/sec)8.8
semimajor axis (AU)2.2241883
mean anomaly (°)154.16510
mean daily motion (°/day)0.29713000
aphelion distance (AU)2.423
period (years)3.32
P-vector [x]-0.99161954
P-vector [y]0.09437867
P-vector [z]0.08822334
Q-vector [x]-0.12140317
Q-vector [y]-0.91426076
Q-vector [z]-0.38650813
absolute magnitude18.35
phase slope0.15
uncertainty0
referenceMPEC 2023-Q57
observations used149
oppositions12
arc length (days)7860
first opposition used2002
last opposition used2023
residual rms (arc-secs)0.81
perturbers coarse indicatorM-v
perturbers precise indicator003Ek
first observation date used2002-02-10.0
last observation date used2023-08-19.0
computer nameMPCLINUX
JD of orbit computation2456494.366541
perihelion JD uncertainty (days)1.2555E-04
argument of perihelion uncertainty (°)1.6325E-04
ascending node uncertainty (°)1.5770E-04
inclination uncertainty (°)5.8430E-06
eccentricity uncertainty 6.4469E-08
perihelion distance uncertainty (AU)1.4109E-07
Minimum Orbit Intersection Distances (in AU)
for orbit epoch: 2460200.5, reference: E2023-Q57
Mercury1.62078
Venus1.3054
Earth1.03051
Mars0.36336
Jupiter2.53632
Saturn6.81746
Uranus16.4201
Neptune27.4428

Observations

150 total observations over interval: 2002 02 10.24218 – 2023 08 19.400006
These data are available for download (format description).

